Weather Roundup
Issued by NWS Chicago, IL

Home | Current Version | Previous Version | Graphics & Text | Print | Product List | Glossary On
Versions: 1 2 3 4 5 6 7 8 9 10 11 12 13 14 15 16 17 18 19 20 21 22 23 24 25 26 27 28 29 30 31 32 33 34 35 36 37 38 39 40 41 42 43 44 45 46 47 48 49 50
000
NZUS59 KLOT 202310
HRRLOT

CHICAGO AREA WEATHER ROUNDUP
NATIONAL WEATHER SERVICE CHICAGO/ROMEOVILLE IL
500 PM CST SAT DEC 20 2014

NOTE: "FAIR" INDICATES FEW OR NO CLOUDS BELOW 12,000 FEET WITH NO
SIGNIFICANT WEATHER AND/OR OBSTRUCTIONS TO VISIBILITY.

* THESE STATIONS ARE NOT UNDER NWS QUALITY CONTROL. THEY ALSO MAY NOT
  REPORT WEATHER SUCH AS PRECIPITATION OR FOG.

ILZ005-006-012>014-019>023-210000-
NORTHEAST ILLINOIS

CITY           SKY/WX    TMP DP  RH WIND       PRES   REMARKS
OHARE          FLURRIES  32  24  72 SW5       30.25R WCI  27
MIDWAY         CLOUDY    34  25  69 S7        30.26R WCI  28
AURORA         CLOUDY    32  26  78 SE6       30.25R WCI  26
LANSING*       CLOUDY    32  27  81 S3        30.27R
JOLIET*        CLOUDY    32  26  79 CALM      30.27R
WAUKEGAN       CLOUDY    30  24  78 SW5       30.24R WCI  25
DUPAGE AIRPORT CLOUDY    31  25  78 S5        30.24R WCI  26
WHEELING       CLOUDY    33  24  69 S5        30.27R WCI  29
KANKAKEE*      CLOUDY    32  28  84 S3        30.28R
MORRIS*        CLOUDY    32  29  88 S5        30.25S WCI  28
LEWIS AIRPORT* CLOUDY    32  27  80 S6        30.26R WCI  26
NORTHERLY IS     N/A     33  25  72 S5          N/A  WCI  29
$$

WIZ051-052-058>065-066-070>072-210000-
SOUTHEAST WISCONSIN

CITY           SKY/WX    TMP DP  RH WIND       PRES   REMARKS
MILWAUKEE      FLURRIES  31  23  72 W3        30.24S
KENOSHA*       CLOUDY    32  25  75 CALM      30.24R
RACINE*        CLOUDY    31  24  75 CALM      30.26S
BURLINGTON     CLOUDY    29  25  85 CALM      30.23S
WAUKESHA       CLOUDY    28  25  86 CALM      30.23F
WEST BEND      CLOUDY    30  25  80 CALM      30.23S
$$

INZ001>003-010>013-019-020-210000-
NORTHWEST INDIANA

CITY           SKY/WX    TMP DP  RH WIND       PRES   REMARKS
GARY*          CLOUDY    34  23  64 VRB5      30.27S WCI  30
MICHIGAN CITY* NOT AVBL
RENSSELAER*    NOT AVBL
VALPARAISO     CLOUDY    31  25  78 SW5       30.27R WCI  26
$$

LMZ740>746-210000-
SOUTHERN LAKE MICHIGAN

STATION/POSITION TIME  SKY/WX   TEMP WIND        PRES    VSBY
                                AIR  DIR/SP/G
                 (UTC)          (F)  (DEG/KT/KT) (MB)    (MI)
HARRISON CRIB    2300            33  190/  8/  9   N/A
BURNHAM HARBOR   2300            33  200/  4/  6   N/A
CALUMET HARBOR   2300            33  190/  4/  6 1023.6R
BURNS HARBOR     NOT AVBL
MICHIGAN CITY    NOT AVBL
$$

ABBREVIATIONS USED IN REMARKS
   TC - TEMPERATURE IN CELSIUS
  WCI - WIND CHILL INDEX
   HX - HEAT INDEX
  VSB - VISIBILITY
$$



USA.gov is the U.S. government's official web portal to all federal, state and local government web resources and services.